Weather History for Westerly, RI

Change the Weather History Date:

Saturday, September 7, 2013

  Actual Average (KGON) Record (KGON)
Temperature  
Mean Temperature 60 °F -  
Max Temperature 73 °F 76 °F 91 °F (1983)
Min Temperature 46 °F 57 °F 40 °F (1962)
Degree Days  
Heating Degree Days 6    
Growing Degree Days 10 (Base 50)    
Moisture  
Dew Point 51 °F    
Average Humidity 72    
Maximum Humidity 97    
Minimum Humidity 39    
Precipitation  
Precipitation 0.00 in - - ()
Sea Level Pressure  
Sea Level Pressure 30.03 in    
Wind  
Wind Speed 4 mph (SW)    
Max Wind Speed 15 mph    
Max Gust Speed 23 mph    
Visibility 10 miles    
Events      
Averages and records for this station are not official NWS values.
T = Trace of Precipitation, MM = Missing Value Source: NWS Daily Summary

Daily Weather History Graph

Daily Weather History Graph

Search for Another Location

Airport:

Trip Planner

Search our weather history database for the weather conditions in past years. The results will help you decide how hot, cold, wet, or windy it might be!

Date:

Astronomy

Sep. 07, 2013 Rise Set
Actual Time 6:19 AM EDT 7:09 PM EDT
Civil Twilight 5:51 AM EDT 7:37 PM EDT
Nautical Twilight 5:18 AM EDT 8:10 PM EDT
Astronomical Twilight 4:43 AM EDT 8:45 PM EDT
Moon 8:33 AM EDT (9/7) 8:04 PM EDT (9/7)
Length of Visible Light 13h 46m
Length of Day
12h 49m
Waxing Crescent, 5% of the Moon is Illuminated
Sep 7
Waxing Crescent
Sep 12
First Quarter
Sep 19
Full
Sep 26
Last Quarter
Oct 4
New

Hourly Weather History & Observations

Time (EDT) Temp. Dew Point Humidity Pressure Visibility Wind Dir Wind Speed Gust Speed Precip Events Conditions
12:53 AM 48.9 °F 46.9 °F 93% 30.12 in 10.0 mi Calm Calm - N/A   Clear
1:53 AM 46.9 °F 46.0 °F 97% 30.12 in 10.0 mi Calm Calm - N/A   Clear
2:53 AM 46.9 °F 46.0 °F 97% 30.12 in 10.0 mi Calm Calm - N/A   Clear
3:53 AM 46.0 °F 45.0 °F 96% 30.11 in 10.0 mi Calm Calm - N/A   Clear
4:53 AM 46.0 °F 44.1 °F 93% 30.11 in 10.0 mi Calm Calm - N/A   Clear
5:53 AM 46.0 °F 45.0 °F 96% 30.11 in 10.0 mi Calm Calm - N/A   Clear
6:53 AM 46.9 °F 46.0 °F 97% 30.10 in 10.0 mi Calm Calm - N/A   Clear
7:53 AM 55.9 °F 51.1 °F 84% 30.09 in 10.0 mi Calm Calm - N/A   Clear
8:53 AM 63.0 °F 55.0 °F 75% 30.09 in 10.0 mi Variable 3.5 mph - N/A   Clear
9:53 AM 66.9 °F 46.9 °F 49% 30.08 in 10.0 mi West 4.6 mph 16.1 mph N/A   Clear
10:53 AM 70.0 °F 50.0 °F 49% 30.07 in 10.0 mi SW 8.1 mph - N/A   Clear
11:53 AM 70.0 °F 48.9 °F 47% 30.05 in 10.0 mi SW 12.7 mph 20.7 mph N/A   Clear
12:53 PM 70.0 °F 51.1 °F 51% 30.03 in 10.0 mi SW 15.0 mph 21.9 mph N/A   Clear
1:53 PM 71.1 °F 51.1 °F 49% 30.01 in 10.0 mi WSW 12.7 mph 23.0 mph N/A   Clear
2:53 PM 73.0 °F 46.9 °F 39% 29.99 in 10.0 mi WSW 10.4 mph - N/A   Clear
3:53 PM 71.1 °F 48.9 °F 45% 29.97 in 10.0 mi SW 8.1 mph - N/A   Clear
4:53 PM 72.0 °F 55.0 °F 55% 29.95 in 10.0 mi SSW 12.7 mph - N/A   Clear
5:53 PM 70.0 °F 57.0 °F 63% 29.95 in 10.0 mi SW 9.2 mph - N/A   Clear
6:53 PM 66.9 °F 57.0 °F 70% 29.94 in 10.0 mi SW 4.6 mph - N/A   Clear
7:53 PM 66.9 °F 55.9 °F 68% 29.94 in 10.0 mi SSW 6.9 mph - N/A   Clear
8:53 PM 66.0 °F 57.0 °F 73% 29.94 in 10.0 mi SW 5.8 mph - N/A   Clear
9:53 PM 66.0 °F 57.9 °F 75% 29.94 in 10.0 mi SW 5.8 mph - N/A   Mostly Cloudy
10:53 PM 66.0 °F 60.1 °F 81% 29.92 in 10.0 mi SW 5.8 mph - 0.00 in   Mostly Cloudy
11:53 PM 66.0 °F 60.1 °F 81% 29.91 in 10.0 mi Variable 5.8 mph - N/A   Overcast